Location: Ottawa
(45.4170°N, 75.7000°W)
Time: 14:16:56
(UTC-05:00)

Amateur Radio Satellites - All Passes

Search period start: 28 November 2014 13:46
Search period end: 29 November 2014 13:46
Location: Ottawa, 45.4170°N, 75.7000°W

Satellite Date Start Highest point End Downlink Frequencies (MHz)
Time Altitude Azimuth
AUBIESAT-1 28 Nov 13:53:19 13:58:16 85° 290° (WNW) 14:03:04 437.475
M-CUBED/EXP-1 PRIME 28 Nov 14:00:31 14:05:27 69° 292° (WNW) 14:10:14 437.505
STARS 28 Nov 14:11:30 14:15:08 25° 95° (E) 14:18:44 437.465
MaSat-1 28 Nov 14:16:35 14:19:17 38° 115° (ESE) 14:21:47 437.345
ITAMSAT 1 28 Nov 14:31:38 14:35:52 25° 266° (W) 14:40:07 435.822/435.867
ITUPSAT 1 28 Nov 14:35:13 14:39:33 34° 293° (WNW) 14:43:50 437.325
VERMONT LUNAR 28 Nov 14:37:31 14:40:47 32° 169° (S) 14:44:03 437.305
PHONESAT 2.4 28 Nov 14:37:42 14:40:57 29° 166° (SSE) 14:44:13 2401.200-2431.200
O/OREOS (USA 219) 28 Nov 14:43:58 14:48:24 58° 63° (ENE) 14:52:49 437.305
SWISSCUBE 28 Nov 14:45:21 14:49:18 26° 296° (WNW) 14:53:13 437.505
JAS-2 28 Nov 14:46:48 14:52:46 25° 56° (NE) 14:58:44 435.910
KKS-1 28 Nov 14:57:23 15:01:50 77° 286° (WNW) 15:06:16 437.445
RS-15 28 Nov 15:05:11 15:15:26 48° 112° (ESE) 15:25:40 29.354- 29.394
AO-7 28 Nov 15:13:09 15:21:28 89° 71° (ENE) 15:29:51 29.400- 29.500
BEESAT 28 Nov 15:16:42 15:19:30 16° 301° (WNW) 15:22:17 436.000
HORYU 2 28 Nov 15:17:05 15:20:54 28° 264° (W) 15:24:44 437.375
Gurwin Techsat 1B 28 Nov 15:21:03 15:24:22 17° 271° (W) 15:27:41 435.225
YUBILEINY 28 Nov 15:25:45 15:31:35 20° 283° (WNW) 15:37:25 435.215
AUBIESAT-1 28 Nov 15:29:55 15:32:29 14° 308° (NW) 15:35:03 437.475
M-CUBED/EXP-1 PRIME 28 Nov 15:37:48 15:39:35 12° 310° (NW) 15:41:22 437.505
STARS 28 Nov 15:47:42 15:51:41 35° 292° (WNW) 15:55:40 437.465
MaSat-1 28 Nov 15:53:31 15:53:52 10° 309° (NW) 15:54:12 437.345
Cubesat XI-IV 28 Nov 15:53:54 15:57:05 16° 57° (ENE) 16:00:15 437.490
VERMONT LUNAR 28 Nov 16:15:31 16:18:52 36° 186° (S) 16:22:13 437.305
PHONESAT 2.4 28 Nov 16:15:52 16:19:20 38° 183° (S) 16:22:49 2401.200-2431.200
MOZHAYETS 4 28 Nov 16:21:56 16:25:55 27° 94° (E) 16:29:52
O/OREOS (USA 219) 28 Nov 16:24:40 16:27:19 16° 260° (W) 16:29:58 437.305
JAS-2 28 Nov 16:29:07 16:36:54 86° 255° (WSW) 16:44:47 435.910
CUTE-I 28 Nov 16:32:36 16:37:16 32° 65° (ENE) 16:41:57 437.470
AO-7 28 Nov 17:09:28 17:15:18 21° 270° (W) 17:21:11 29.400- 29.500
RS-15 28 Nov 17:16:52 17:27:35 58° 316° (NW) 17:38:28 29.354- 29.394
GONETS M04 28 Nov 17:21:55 17:28:48 24° 61° (ENE) 17:35:35
Cubesat XI-IV 28 Nov 17:31:06 17:36:29 85° 255° (WSW) 17:41:53 437.490
PCSat 28 Nov 17:54:11 17:57:48 18° 105° (ESE) 18:01:25 145.827
VERMONT LUNAR 28 Nov 17:54:14 17:56:48 18° 203° (SSW) 17:59:23 437.305
PHONESAT 2.4 28 Nov 17:54:40 17:57:40 23° 199° (SSW) 18:00:39 2401.200-2431.200
MOZHAYETS 4 28 Nov 17:58:57 18:03:11 35° 292° (WNW) 18:07:24
PRISM 28 Nov 18:08:15 18:12:28 60° 101° (ESE) 18:16:38 437.425
CUBESAT XI-V 28 Nov 18:11:26 18:15:27 28° 94° (E) 18:19:24 437.345
CUTE-I 28 Nov 18:12:15 18:17:14 39° 262° (W) 18:22:14 437.470
STRAND 1 28 Nov 18:13:01 18:17:21 27° 94° (E) 18:21:38 437.568
JAS-2 28 Nov 18:17:35 18:22:52 20° 274° (W) 18:28:14 435.910
HO-68 28 Nov 18:24:27 18:29:54 24° 54° (NE) 18:35:21 435.675
BEESAT 3 28 Nov 18:33:20 18:36:09 18° 112° (ESE) 18:38:59 437.485
BEESAT 2 28 Nov 18:50:36 18:53:56 24° 114° (ESE) 18:57:20 435.950
BRITE-PL 28 Nov 18:54:21 18:57:24 17° 64° (ENE) 19:00:20 437.365/2234.400
SEEDS 28 Nov 19:02:57 19:05:32 16° 62° (ENE) 19:08:07 437.485
AAUSAT CUBESAT 2 28 Nov 19:13:50 19:16:21 16° 62° (ENE) 19:18:52 437.432
Cubesat XI-IV 28 Nov 19:15:32 19:17:22 12° 273° (W) 19:19:11 437.490
GONETS M04 28 Nov 19:17:54 19:26:47 84° 264° (W) 19:35:33
Oscar 11 28 Nov 19:22:18 19:23:26 11° 58° (ENE) 19:24:33 145.826/435.025
AIST 1 28 Nov 19:24:37 19:29:01 90° 279° (W) 19:33:29
COMPASS 1 28 Nov 19:30:09 19:33:34 25° 67° (ENE) 19:37:01 437.405
CANX-2 28 Nov 19:33:37 19:37:32 39° 70° (ENE) 19:41:30 2200.000
RS-15 28 Nov 19:33:43 19:42:54 29° 348° (NNW) 19:52:17 29.354- 29.394
PCSat 28 Nov 19:35:13 19:40:37 72° 304° (NW) 19:46:04 145.827
AIST 2 28 Nov 19:37:38 19:41:31 36° 117° (ESE) 19:45:29 435.215
PRISM 28 Nov 19:45:06 19:47:33 15° 299° (WNW) 19:49:59 437.425
GOMX 1 28 Nov 19:47:25 19:51:41 38° 70° (ENE) 19:55:43 467.674
CUBESAT XI-V 28 Nov 19:48:43 19:52:55 34° 292° (WNW) 19:57:05 437.345
DX 1 28 Nov 19:49:34 19:52:43 20° 63° (ENE) 19:55:52 434.975-435.025
STRAND 1 28 Nov 19:51:53 19:56:40 41° 292° (WNW) 20:01:24 437.568
UWE-3 28 Nov 19:54:18 19:55:47 12° 60° (ENE) 19:57:15 435.000/436.395/437.385
CUBEBUG 2 28 Nov 19:59:18 20:01:43 15° 62° (ENE) 20:04:08 437.445
CUTE 1.7 + AOD 2 28 Nov 20:07:31 20:11:44 83° 76° (ENE) 20:16:00 437.475
HO-68 28 Nov 20:09:39 20:16:51 81° 254° (WSW) 20:24:06 435.675
BEESAT 3 28 Nov 20:09:58 20:13:59 52° 310° (NW) 20:18:06 437.485
ZACube-1 28 Nov 20:20:59 20:23:54 19° 64° (ENE) 20:26:48 437.345
BEESAT 2 28 Nov 20:28:07 20:32:02 40° 313° (NW) 20:36:01 435.950
DOVE 4 28 Nov 20:29:07 20:33:37 76° 75° (ENE) 20:37:54 437.250
BRITE-PL 28 Nov 20:30:46 20:35:35 59° 259° (W) 20:40:04 437.365/2234.400
VELOX 1 28 Nov 20:32:44 20:35:48 18° 62° (ENE) 20:38:51 145.980
SEEDS 28 Nov 20:36:51 20:40:57 54° 260° (W) 20:45:06 437.485
DELFI C3 28 Nov 20:37:30 20:41:26 49° 72° (ENE) 20:45:25 145.870
CINEMA 3 28 Nov 20:42:53 20:47:09 64° 74° (ENE) 20:51:19 145.822/145.860
ESTCUBE 1 28 Nov 20:45:03 20:45:31 10° 56° (ENE) 20:46:00 437.505/2401.250
UKube-1 28 Nov 20:45:34 20:49:53 68° 73° (ENE) 20:54:14 .
50 SAT 28 Nov 20:45:49 20:48:27 17° 64° (ENE) 20:51:05 437.505
AAUSAT CUBESAT 2 28 Nov 20:47:32 20:51:37 55° 260° (W) 20:55:44 437.432
FUNcube-1 28 Nov 20:54:01 20:57:54 39° 70° (ENE) 21:01:46 145.935
Oscar 11 28 Nov 20:54:36 20:58:54 89° 260° (W) 21:03:15 145.826/435.025
AISAT 28 Nov 20:59:46 21:03:46 33° 68° (ENE) 21:07:46 437.250
CUBEBUG 1 28 Nov 21:03:11 21:05:33 14° 60° (ENE) 21:07:55 437.445
COMPASS 1 28 Nov 21:05:28 21:09:12 31° 264° (W) 21:12:58 437.405
CANX-2 28 Nov 21:10:29 21:13:38 20° 268° (W) 21:16:49 2200.000
HUMSAT D 28 Nov 21:16:12 21:20:04 41° 71° (ENE) 21:23:57 437.325/437.525
AIST 2 28 Nov 21:16:26 21:20:13 30° 316° (NW) 21:24:03 435.215
GONETS M04 28 Nov 21:16:45 21:22:11 18° 285° (WNW) 21:27:36
PCSat 28 Nov 21:21:31 21:25:01 17° 326° (NW) 21:28:33 145.827
DX 1 28 Nov 21:24:26 21:28:39 47° 260° (W) 21:32:54 434.975-435.025
GOMX 1 28 Nov 21:26:14 21:29:55 23° 266° (W) 21:33:27 467.674
UWE-3 28 Nov 21:27:33 21:31:46 77° 257° (WSW) 21:35:56 435.000/436.395/437.385
UNISAT 6 28 Nov 21:31:15 21:33:07 12° 89° (E) 21:34:59 437.425
CUBEBUG 2 28 Nov 21:33:52 21:38:02 56° 260° (W) 21:42:09 437.445
POLYITAN 1 28 Nov 21:44:23 21:44:59 10° 88° (E) 21:45:35 437.675
QB50P2 28 Nov 21:44:55 21:45:46 11° 88° (E) 21:46:36 145.880/145.840
DUCHIFAT 1 28 Nov 21:48:25 21:49:47 11° 89° (E) 21:51:08 145.980
RS-15 28 Nov 21:49:48 21:59:35 34° 23° (NNE) 22:09:39 29.354- 29.394
BEESAT 3 28 Nov 21:51:44 21:53:11 12° 331° (NNW) 21:54:39 437.485
TISAT 1 28 Nov 21:55:40 21:57:36 13° 60° (ENE) 21:59:31 437.305
ZACube-1 28 Nov 21:56:00 22:00:00 43° 261° (W) 22:04:00 437.345
ANTELSAT 28 Nov 21:58:56 22:02:35 24° 94° (E) 22:06:16 437.575/2403.000
HO-68 28 Nov 22:01:41 22:05:38 15° 273° (W) 22:09:38 435.675
NANOSAT C BR1 28 Nov 22:07:00 22:09:59 19° 92° (E) 22:12:57 145.865
VELOX 1 28 Nov 22:07:38 22:12:01 53° 260° (W) 22:16:24 145.980
DOVE 4 28 Nov 22:10:35 22:11:52 11° 271° (W) 22:13:08 437.250
BUGSAT 1 28 Nov 22:12:01 22:14:39 17° 92° (E) 22:17:15 437.445
SPROUT 28 Nov 22:14:08 22:16:59 17° 63° (ENE) 22:19:49 437.525
DELFI C3 28 Nov 22:14:39 22:17:03 15° 269° (W) 22:19:28 145.870
CUSAT 1 28 Nov 22:14:46 22:18:46 25° 73° (ENE) 22:23:44 437.405
QB50P1 28 Nov 22:17:01 22:20:26 24° 94° (E) 22:23:50 145.935-145.965
ESTCUBE 1 28 Nov 22:17:03 22:21:35 77° 74° (ENE) 22:26:10 437.505/2401.250
50 SAT 28 Nov 22:19:33 22:23:26 45° 261° (W) 22:27:19 437.505
CINEMA 3 28 Nov 22:22:58 22:24:47 12° 270° (W) 22:26:36 145.822/145.860
UKube-1 28 Nov 22:24:34 22:26:31 13° 270° (W) 22:28:28 .
FUNcube-1 28 Nov 22:31:22 22:34:25 20° 267° (W) 22:37:29 145.935
AISAT 28 Nov 22:36:37 22:40:25 27° 265° (W) 22:44:15 437.250
CUBEBUG 1 28 Nov 22:36:57 22:41:23 70° 258° (WSW) 22:45:50 437.445
ISS 28 Nov 22:40:22 22:43:36 56° 146° (SE) 22:46:50 145.825
POPSAT HIP 1 28 Nov 22:41:50 22:45:52 42° 99° (E) 22:49:53 437.405
TIGRISAT 28 Nov 22:50:28 22:54:56 77° 103° (ESE) 22:59:28 435.000
HUMSAT D 28 Nov 22:53:14 22:56:06 18° 268° (W) 22:58:58 437.325/437.525
DANDE 28 Nov 22:54:00 22:58:26 44° 77° (ENE) 23:04:20 436.750
UNISAT 6 28 Nov 23:05:56 23:10:24 74° 286° (WNW) 23:14:56 437.425
BEESAT 28 Nov 23:11:02 23:13:42 15° 59° (ENE) 23:16:22 436.000
AUBIESAT-1 28 Nov 23:11:06 23:14:28 23° 57° (ENE) 23:18:03 437.475
POLYITAN 1 28 Nov 23:17:14 23:21:29 78° 285° (WNW) 23:25:43 437.675
QB50P2 28 Nov 23:17:59 23:22:13 77° 285° (WNW) 23:26:27 145.880/145.840
M-CUBED/EXP-1 PRIME 28 Nov 23:18:13 23:21:52 28° 59° (ENE) 23:25:47 437.505
DUCHIFAT 1 28 Nov 23:21:56 23:26:09 71° 286° (WNW) 23:30:20 145.980
TISAT 1 28 Nov 23:28:37 23:32:53 73° 257° (WSW) 23:37:09 437.305
ANTELSAT 28 Nov 23:35:21 23:39:29 38° 291° (WNW) 23:43:41 437.575/2403.000
NANOSAT C BR1 28 Nov 23:42:05 23:46:05 43° 289° (WNW) 23:50:04 145.865
BUGSAT 1 28 Nov 23:46:31 23:50:25 44° 289° (WNW) 23:54:15 437.445
SPROUT 28 Nov 23:48:29 23:52:42 52° 260° (W) 23:56:55 437.525
MaSat-1 28 Nov 23:52:16 23:54:30 42° 245° (WSW) 23:56:47 437.345
QB50P1 28 Nov 23:52:35 23:56:24 34° 291° (WNW) 00:00:12 145.935-145.965
CUSAT 1 28 Nov 23:57:13 00:01:55 48° 263° (W) 00:08:07 437.405
ESTCUBE 1 28 Nov 23:57:15 23:59:01 12° 272° (W) 00:00:48 437.505/2401.250
RS-15 29 Nov 00:02:48 00:14:02 77° 52° (NE) 00:25:45 29.354- 29.394
ITUPSAT 1 29 Nov 00:06:21 00:10:55 44° 69° (ENE) 00:15:30 437.325
SWISSCUBE 29 Nov 00:15:50 00:20:33 60° 72° (ENE) 00:25:18 437.505
ISS 29 Nov 00:17:18 00:20:22 35° 345° (NNW) 00:23:26 145.825
POPSAT HIP 1 29 Nov 00:18:27 00:21:30 20° 296° (WNW) 00:24:33 437.405
KKS-1 29 Nov 00:23:27 00:26:03 15° 61° (ENE) 00:28:38 437.445
TIGRISAT 29 Nov 00:29:00 00:31:07 13° 300° (WNW) 00:33:15 435.000
YUBILEINY 29 Nov 00:37:13 00:43:19 22° 77° (ENE) 00:49:24 435.215
DANDE 29 Nov 00:37:54 00:41:52 25° 266° (W) 00:46:49 436.750
AUBIESAT-1 29 Nov 00:45:06 00:49:08 45° 257° (WSW) 00:53:33 437.475
BEESAT 29 Nov 00:46:08 00:50:56 78° 257° (WSW) 00:55:46 436.000
M-CUBED/EXP-1 PRIME 29 Nov 00:52:57 00:56:47 34° 259° (W) 01:00:58 437.505
ITAMSAT 1 29 Nov 01:03:33 01:06:02 13° 88° (E) 01:08:31 435.822/435.867
STARS 29 Nov 01:10:58 01:14:46 30° 67° (ENE) 01:18:35 437.465
Oscar 19 29 Nov 01:40:34 01:45:46 74° 103° (ESE) 01:50:56 437.125/150
ITUPSAT 1 29 Nov 01:45:13 01:49:00 23° 267° (W) 01:52:50 437.325
Gurwin Techsat 1B 29 Nov 01:53:14 01:57:28 24° 93° (E) 02:01:41 435.225
ISS 29 Nov 01:54:43 01:57:35 27° 5° (N) 02:00:28 145.825
SWISSCUBE 29 Nov 01:55:42 01:58:49 17° 269° (W) 02:01:57 437.505
KKS-1 29 Nov 01:57:47 02:02:12 65° 258° (WSW) 02:06:38 437.445
RS-15 29 Nov 02:15:57 02:25:29 34° 254° (WSW) 02:35:24 29.354- 29.394
SO-50 29 Nov 02:18:14 02:22:05 28° 114° (ESE) 02:26:02 436.795
AIST 2 29 Nov 02:20:28 02:22:00 12° 28° (NNE) 02:23:32 435.215
YUBILEINY 29 Nov 02:30:08 02:38:58 86° 278° (W) 02:47:47 435.215
PCSat 29 Nov 02:38:04 02:42:45 28° 44° (NE) 02:47:25 145.827
ITAMSAT 1 29 Nov 02:40:59 02:46:11 82° 286° (WNW) 02:51:21 435.822/435.867
STARS 29 Nov 02:47:23 02:51:13 29° 264° (W) 02:55:05 437.465
BEESAT 3 29 Nov 02:50:06 02:53:43 27° 43° (NE) 02:57:18 437.485
HORYU 2 29 Nov 03:05:46 03:10:07 47° 99° (E) 03:14:27 437.375
BEESAT 2 29 Nov 03:08:11 03:12:04 34° 46° (NE) 03:15:54 435.950
AO-7 29 Nov 03:13:02 03:19:47 26° 93° (E) 03:26:29 29.400- 29.500
Oscar 19 29 Nov 03:21:13 03:24:31 17° 301° (WNW) 03:27:49 437.125/150
MOZHAYETS 4 29 Nov 03:26:09 03:30:15 33° 68° (ENE) 03:34:24
ISS 29 Nov 03:31:23 03:34:40 60° 25° (NNE) 03:37:55 145.825
Gurwin Techsat 1B 29 Nov 03:32:35 03:37:42 50° 291° (WNW) 03:42:48 435.225
JAS-2 29 Nov 03:40:35 03:43:18 13° 80° (E) 03:45:53 435.910
AIST 2 29 Nov 03:57:27 04:01:40 50° 49° (NE) 04:05:49 435.215
SO-50 29 Nov 03:58:07 04:02:27 42° 314° (NW) 04:06:56 436.795
PCSat 29 Nov 04:21:11 04:26:30 56° 244° (WSW) 04:31:46 145.827
ITAMSAT 1 29 Nov 04:22:31 04:24:52 13° 305° (NW) 04:27:12 435.822/435.867
BEESAT 3 29 Nov 04:28:07 04:32:04 41° 242° (WSW) 04:35:58 437.485
YUBILEINY 29 Nov 04:30:53 04:37:10 21° 301° (WNW) 04:43:28 435.215
HORYU 2 29 Nov 04:43:10 04:46:30 21° 297° (WNW) 04:49:49 437.375
BEESAT 2 29 Nov 04:46:36 04:50:18 30° 244° (WSW) 04:53:57 435.950
O/OREOS (USA 219) 29 Nov 04:58:25 05:02:40 44° 108° (ESE) 05:06:55 437.305
PRISM 29 Nov 05:01:06 05:05:15 61° 73° (ENE) 05:09:27 437.425
MOZHAYETS 4 29 Nov 05:03:31 05:07:29 28° 265° (W) 05:11:31
AO-7 29 Nov 05:04:58 05:13:19 76° 292° (WNW) 05:21:39 29.400- 29.500
ISS 29 Nov 05:08:24 05:11:05 23° 222° (SW) 05:13:46 145.825
CUBESAT XI-V 29 Nov 05:16:58 05:21:15 35° 68° (ENE) 05:25:33 437.345
JAS-2 29 Nov 05:22:44 05:29:48 75° 102° (ESE) 05:35:58 435.910
AIST 1 29 Nov 05:30:12 05:34:00 28° 72° (ENE) 05:37:44
STRAND 1 29 Nov 05:30:50 05:35:46 50° 70° (ENE) 05:40:44 437.568
AIST 2 29 Nov 05:36:47 05:39:59 20° 248° (WSW) 05:43:07 435.215
SO-50 29 Nov 05:42:32 05:44:18 12° 337° (NNW) 05:46:05 436.795
Cubesat XI-IV 29 Nov 05:46:36 05:51:22 32° 96° (E) 05:56:06 437.490
CUTE-I 29 Nov 06:26:41 06:32:00 71° 103° (ESE) 06:37:17 437.470
GONETS M04 29 Nov 06:27:20 06:33:54 24° 79° (ENE) 06:40:29
O/OREOS (USA 219) 29 Nov 06:38:42 06:42:16 23° 307° (NW) 06:45:50 437.305
PRISM 29 Nov 06:39:06 06:41:12 14° 270° (W) 06:43:20 437.425
CUBESAT XI-V 29 Nov 06:54:43 06:58:44 28° 266° (W) 07:02:48 437.345
AO-7 29 Nov 06:59:06 07:04:49 21° 314° (NW) 07:10:32 29.400- 29.500
AIST 1 29 Nov 07:07:53 07:11:36 28° 271° (W) 07:15:17
JAS-2 29 Nov 07:08:41 07:14:02 24° 305° (NW) 07:18:56 435.910
STRAND 1 29 Nov 07:11:12 07:15:13 23° 267° (W) 07:19:15 437.568
Cubesat XI-IV 29 Nov 07:26:38 07:31:29 37° 294° (WNW) 07:36:19 437.490
HO-68 29 Nov 07:36:40 07:41:06 17° 88° (E) 07:45:29 435.675
CUTE 1.7 + AOD 2 29 Nov 07:52:44 07:54:40 13° 89° (E) 07:56:36 437.475
CUTE-I 29 Nov 08:07:56 08:11:31 19° 301° (WNW) 08:15:05 437.470
TIGRISAT 29 Nov 08:19:23 08:19:56 10° 58° (ENE) 08:20:29 435.000
SEEDS 29 Nov 08:20:04 08:23:23 22° 93° (E) 08:26:42 437.485
GONETS M04 29 Nov 08:20:53 08:29:43 79° 280° (W) 08:38:38
DOVE 4 29 Nov 08:27:07 08:29:39 15° 91° (E) 08:32:14 437.250
AAUSAT CUBESAT 2 29 Nov 08:29:43 08:32:55 20° 93° (E) 08:36:06 437.432
UNISAT 6 29 Nov 08:33:04 08:35:26 15° 61° (ENE) 08:37:49 437.425
BRITE-PL 29 Nov 08:33:26 08:37:10 31° 97° (E) 08:40:58 437.365/2234.400
CINEMA 3 29 Nov 08:37:20 08:39:06 12° 90° (E) 08:40:53 145.822/145.860
POLYITAN 1 29 Nov 08:39:51 08:41:34 12° 60° (ENE) 08:43:17 437.675
QB50P2 29 Nov 08:40:20 08:42:07 12° 60° (ENE) 08:43:53 145.880/145.840
Oscar 11 29 Nov 08:41:23 08:43:47 15° 90° (E) 08:46:11 145.826/435.025
DUCHIFAT 1 29 Nov 08:43:43 08:45:42 13° 60° (ENE) 08:47:42 145.980
COMPASS 1 29 Nov 08:47:02 08:50:57 35° 97° (E) 08:54:50 437.405
CANX-2 29 Nov 08:52:34 08:56:50 59° 100° (E) 09:01:05 2200.000
ANTELSAT 29 Nov 09:00:49 09:04:23 27° 66° (ENE) 09:08:00 437.575/2403.000
NANOSAT C BR1 29 Nov 09:02:27 09:05:33 20° 64° (ENE) 09:08:39 145.865
BUGSAT 1 29 Nov 09:04:48 09:07:40 18° 63° (ENE) 09:10:30 437.445
SO-50 29 Nov 09:07:32 09:10:00 14° 27° (NNE) 09:12:29 436.795
DX 1 29 Nov 09:11:10 09:14:44 24° 95° (E) 09:18:17 434.975-435.025
QB50P1 29 Nov 09:12:26 09:15:54 25° 66° (ENE) 09:19:23 145.935-145.965
UWE-3 29 Nov 09:16:16 09:19:12 18° 92° (E) 09:22:10 435.000/436.395/437.385
HO-68 29 Nov 09:22:33 09:29:47 87° 107° (ESE) 09:36:57 435.675
CUBEBUG 2 29 Nov 09:23:11 09:26:41 24° 94° (E) 09:30:14 437.445
GOMX 1 29 Nov 09:24:26 09:28:38 82° 103° (ESE) 09:32:57 467.674
CUTE 1.7 + AOD 2 29 Nov 09:26:46 09:31:03 66° 286° (WNW) 09:35:18 437.475
POPSAT HIP 1 29 Nov 09:37:05 09:41:07 43° 71° (ENE) 09:45:09 437.405
ZACube-1 29 Nov 09:42:39 09:46:21 28° 96° (E) 09:50:06 437.345
DELFI C3 29 Nov 09:51:20 09:55:29 67° 101° (ESE) 09:59:36 145.870
TIGRISAT 29 Nov 09:51:44 09:55:59 88° 76° (ENE) 10:00:17 435.000
SEEDS 29 Nov 09:55:23 09:59:21 38° 290° (WNW) 10:03:18 437.485
VELOX 1 29 Nov 09:56:53 10:00:31 25° 94° (E) 10:04:08 145.980
50 SAT 29 Nov 09:58:50 10:01:56 21° 93° (E) 10:05:02 437.505
DOVE 4 29 Nov 10:03:40 10:07:45 51° 288° (WNW) 10:11:56 437.250
AAUSAT CUBESAT 2 29 Nov 10:04:47 10:08:45 39° 290° (WNW) 10:12:41 437.432
UKube-1 29 Nov 10:07:27 10:11:49 88° 285° (WNW) 10:16:09 .
UNISAT 6 29 Nov 10:07:33 10:11:45 62° 259° (W) 10:16:01 437.425
ESTCUBE 1 29 Nov 10:09:32 10:11:53 14° 89° (E) 10:14:14 437.505/2401.250
BRITE-PL 29 Nov 10:12:17 10:15:37 24° 293° (WNW) 10:18:59 437.365/2234.400
CINEMA 3 29 Nov 10:12:32 10:16:45 67° 286° (WNW) 10:21:06 145.822/145.860
POLYITAN 1 29 Nov 10:12:41 10:16:56 77° 257° (WSW) 10:21:12 437.675
QB50P2 29 Nov 10:13:12 10:17:27 76° 257° (WSW) 10:21:43 145.880/145.840
Oscar 11 29 Nov 10:16:03 10:20:21 59° 287° (WNW) 10:24:37 145.826/435.025
FUNcube-1 29 Nov 10:16:18 10:20:32 64° 101° (ESE) 10:24:51 145.935
DUCHIFAT 1 29 Nov 10:16:48 10:21:02 71° 258° (WSW) 10:25:17 145.980
GONETS M04 29 Nov 10:22:15 10:28:10 19° 303° (WNW) 10:34:08
COMPASS 1 29 Nov 10:23:06 10:26:31 24° 294° (WNW) 10:29:56 437.405
AISAT 29 Nov 10:24:59 10:29:18 48° 100° (E) 10:33:33 437.250
CUBEBUG 1 29 Nov 10:25:02 10:28:05 18° 92° (E) 10:31:06 437.445
CANX-2 29 Nov 10:29:46 10:32:20 16° 298° (WNW) 10:34:54 2200.000
HUMSAT D 29 Nov 10:34:08 10:38:17 61° 101° (E) 10:42:28 437.325/437.525
NANOSAT C BR1 29 Nov 10:37:08 10:41:11 42° 261° (W) 10:45:14 145.865
ANTELSAT 29 Nov 10:37:22 10:41:08 30° 264° (W) 10:44:56 437.575/2403.000
BUGSAT 1 29 Nov 10:38:43 10:42:50 48° 260° (W) 10:46:56 437.445
YUBILEINY 29 Nov 10:44:02 10:47:01 12° 49° (NE) 10:49:59 435.215
SO-50 29 Nov 10:46:55 10:51:40 51° 48° (NE) 10:56:27 436.795
DX 1 29 Nov 10:47:06 10:51:03 34° 292° (WNW) 10:54:58 434.975-435.025
QB50P1 29 Nov 10:47:50 10:51:41 33° 263° (W) 10:55:32 145.935-145.965
UWE-3 29 Nov 10:51:54 10:55:59 46° 288° (WNW) 11:00:09 435.000/436.395/437.385
CUBEBUG 2 29 Nov 10:59:36 11:03:28 34° 291° (WNW) 11:07:24 437.445
GOMX 1 29 Nov 11:05:09 11:06:12 11° 300° (WNW) 11:07:15 467.674
HO-68 29 Nov 11:11:26 11:16:38 22° 307° (NW) 11:21:49 435.675
TISAT 1 29 Nov 11:13:01 11:15:30 15° 91° (E) 11:17:58 437.305
POPSAT HIP 1 29 Nov 11:14:15 11:17:14 18° 268° (W) 11:20:14 437.405
ZACube-1 29 Nov 11:19:01 11:22:42 29° 292° (WNW) 11:26:26 437.345
Oscar 19 29 Nov 11:22:25 11:26:00 20° 60° (ENE) 11:29:35 437.125/150
DELFI C3 29 Nov 11:28:16 11:30:16 13° 299° (WNW) 11:32:15 145.870
VELOX 1 29 Nov 11:33:10 11:37:12 35° 292° (WNW) 11:41:12 145.980
50 SAT 29 Nov 11:33:37 11:37:21 36° 290° (WNW) 11:41:06 437.505
SPROUT 29 Nov 11:33:45 11:37:11 23° 94° (E) 11:40:35 437.525
ESTCUBE 1 29 Nov 11:44:43 11:49:14 66° 287° (WNW) 11:53:42 437.505/2401.250
UKube-1 29 Nov 11:46:10 11:47:17 11° 303° (WNW) 11:48:23 .
FUNcube-1 29 Nov 11:54:07 11:56:26 15° 298° (WNW) 11:58:47 145.935
CUBEBUG 1 29 Nov 12:00:32 12:04:43 45° 289° (WNW) 12:08:50 437.445
AISAT 29 Nov 12:02:27 12:05:36 19° 297° (WNW) 12:08:44 437.250
HUMSAT D 29 Nov 12:11:21 12:13:39 15° 298° (WNW) 12:15:58 437.325/437.525
DANDE 29 Nov 12:14:07 12:16:26 28° 95° (E) 12:18:46 436.750
SWISSCUBE 29 Nov 12:16:06 12:18:18 13° 89° (E) 12:20:30 437.505
ITAMSAT 1 29 Nov 12:22:54 12:27:14 27° 63° (ENE) 12:31:35 435.822/435.867
VERMONT LUNAR 29 Nov 12:23:57 12:25:31 12° 151° (SSE) 12:27:04 437.305
AUBIESAT-1 29 Nov 12:27:03 12:29:42 14° 93° (E) 12:32:17 437.475
SO-50 29 Nov 12:28:00 12:31:59 25° 247° (WSW) 12:35:58 436.795
AO-7 29 Nov 12:28:08 12:31:13 13° 36° (NE) 12:34:18 29.400- 29.500
PHONESAT 2.4 29 Nov 12:29:38 12:30:01 10° 149° (SSE) 12:30:25 2401.200-2431.200
M-CUBED/EXP-1 PRIME 29 Nov 12:34:22 12:37:48 19° 95° (E) 12:41:10 437.505
YUBILEINY 29 Nov 12:37:48 12:46:19 54° 74° (ENE) 12:54:44 435.215
BEESAT 29 Nov 12:45:03 12:48:53 23° 93° (E) 12:52:41 436.000
TISAT 1 29 Nov 12:47:34 12:51:40 52° 288° (WNW) 12:55:45 437.305
Oscar 19 29 Nov 12:59:48 13:04:51 63° 258° (WSW) 13:09:58 437.125/150
SPROUT 29 Nov 13:09:27 13:13:22 35° 291° (WNW) 13:17:15 437.525
CUSAT 1 29 Nov 13:14:50 13:16:53 20° 289° (WNW) 13:19:01 437.405
Gurwin Techsat 1B 29 Nov 13:16:14 13:21:16 46° 69° (ENE) 13:26:20 435.225
MaSat-1 29 Nov 13:23:08 13:24:04 11° 109° (ESE) 13:24:58 437.345
O/OREOS (USA 219) 29 Nov 13:27:38 13:30:36 17° 50° (NE) 13:33:32 437.305
